GSAT-19 (42747 NORAD) Tracking and Keplerian Element Data

This shows tracking and keplerian element data for the satellite.

Feedback or suggestion? Click here.




ElementValue
Catalog42747
NameGSAT-19
Epoch Orbit658
Epoch Day77.57713024
Epoch Year2019
RAAN136.9822
Inclination0.0203
Eccentricity0.000517
Argument of Perigee245.5346
Mean Anonmoly48.9463
Mean Motion1.00271021
Decay Rate1.02E-06
L11 42747U 17031A 19077.57713024 .00000102 00000-0 00000-0 0 9992
L22 42747 0.0203 136.9822 0005170 245.5346 48.9463 1.00271021 6581

Live tracking and technical data element details for GSAT-19 (NORAD 42747). GSAT-19 can be tracked NOW for your location showing map with azimuth and elevation plus other details from your city location.

Track the satellite on the map from your city or location and see movement details for azimuth, elevation, latitude, longitude, range, height, and movement on the map or in text.







IsCatalogInMostPopularTable: catalog: 42747, numindb: 201
Update: records affected: 1



GetName: 42747 GSAT-19

Hit Count: updated at: Wed, 20 Mar 2019 05:00:48 GMT